Mont-De-Marsan, France

5:12 PM CEST on September 21, 2017 (GMT +0200)
Mont-de-Marsan Air Base

Weather History for LFBM - January, 2013

Change the Weather History Date:

Wednesday, January 16, 2013

  Actual Average Record
Temperature  
Mean Temperature 46 °F -  
Max Temperature 56 °F 50 °F 60 °F (2011)
Min Temperature 37 °F 35 °F 26 °F (2009)
Degree Days  
Heating Degree Days 18    
Moisture  
Dew Point 44 °F    
Average Humidity 93    
Maximum Humidity 100    
Minimum Humidity 82    
Precipitation  
Precipitation 0.67 in - - ()
Sea Level Pressure  
Sea Level Pressure 29.73 in    
Wind  
Wind Speed 7 mph ()    
Max Wind Speed 21 mph    
Max Gust Speed 33 mph    
Visibility 4.8 miles    
Events Rain    
Averages and records for this station are not official NWS values.
T = Trace of Precipitation, MM = Missing Value Source: Averaged Metar Reports

Daily Weather History Graph

Daily Weather History Graph

Search for Another Location

Airport or City:

Trip Planner

Search our weather history database for the weather conditions in past years. The results will help you decide how hot, cold, wet, or windy it might be!

Date:

Astronomy

Jan. 16, 2013 Rise Set
Actual Time 8:32 AM CET 5:51 PM CET
Civil Twilight 8:00 AM CET 6:23 PM CET
Nautical Twilight 7:25 AM CET 6:58 PM CET
Astronomical Twilight 6:50 AM CET 7:33 PM CET
Moon 10:49 AM CET (1/16) 11:41 PM CET (1/16)
Length of Visible Light 10h 22m
Length of Day
9h 18m
Waxing Crescent, 25% of the Moon is Illuminated
Jan 16
Waxing Crescent
Jan 19
First Quarter
Jan 27
Full
Feb 3
Last Quarter
Feb 10
New

Hourly Weather History & Observations

Time (CET) Temp. Windchill Dew Point Humidity Pressure Visibility Wind Dir Wind Speed Gust Speed Precip Events Conditions
12:00 AM 42.8 °F 41.1 °F 42.8 °F 100% 29.95 in 3.7 mi SSW 3.5 mph - N/A Rain Light Rain
12:30 AM 44.6 °F 43.1 °F 42.8 °F 93% 29.95 in 3.7 mi Variable 3.5 mph - N/A Rain Light Rain
1:00 AM 44 °F - 43 °F 93% 29.94 in 3 mi SSW 2.3 mph - - Rain Light Rain
1:00 AM 44.6 °F - 42.8 °F 93% 29.92 in 3.1 mi Variable 2.3 mph - N/A Rain Light Rain
1:30 AM 44.6 °F - 42.8 °F 93% 29.92 in - Variable 2.3 mph - N/A Rain Rain
2:00 AM 44.6 °F 43.1 °F 42.8 °F 93% 29.89 in 3.7 mi Variable 3.5 mph - N/A Rain Rain
2:30 AM 44.6 °F - 42.8 °F 93% 29.89 in 5.6 mi Variable 2.3 mph - N/A Rain Light Rain
3:00 AM 44.6 °F 43.1 °F 42.8 °F 93% 29.86 in 5.0 mi Variable 3.5 mph - N/A Rain Light Rain
3:30 AM 44.6 °F 41.4 °F 42.8 °F 93% 29.86 in 2.8 mi SE 5.8 mph - N/A Rain Rain
4:00 AM 42.8 °F 41.1 °F 42.8 °F 100% 29.83 in 4.3 mi SSE 3.5 mph - N/A Rain Light Rain
4:30 AM 42.8 °F 41.1 °F 42.8 °F 100% 29.83 in 3.7 mi SSE 3.5 mph - N/A Rain Light Rain
5:00 AM 42.8 °F - 42.8 °F 100% 29.80 in - Calm Calm - N/A Rain Rain
5:30 AM 44.6 °F - 42.8 °F 93% 29.77 in 2.8 mi Variable 1.2 mph - N/A Rain Light Rain
6:00 AM 44.6 °F 43.1 °F 44.6 °F 100% 29.74 in 3.7 mi South 3.5 mph - N/A Rain Rain
6:30 AM 48.2 °F - 48.2 °F 100% 29.71 in 1.8 mi WSW 11.5 mph - N/A Rain Light Rain
7:00 AM 49 °F - 47 °F 92% 29.73 in 4 mi WSW 15.0 mph - - Rain Light Rain
7:00 AM 48.2 °F - 48.2 °F 100% 29.71 in 4.3 mi WSW 15.0 mph - N/A Rain Light Rain
7:30 AM 48.2 °F - 46.4 °F 93% 29.71 in 3.7 mi WSW 13.8 mph - N/A Rain Light Rain
8:00 AM 48.2 °F - 46.4 °F 93% 29.68 in 6.2 mi WSW 11.5 mph - N/A Rain Light Rain
8:30 AM 46.4 °F 41.5 °F 46.4 °F 100% 29.65 in 2.2 mi SW 10.4 mph - N/A Rain Light Rain
9:00 AM 46.4 °F 41.5 °F 44.6 °F 93% 29.65 in 1.3 mi SW 10.4 mph - N/A Rain Light Rain
9:30 AM 46.4 °F 40.7 °F 46.4 °F 100% 29.65 in - SW 12.7 mph - N/A Rain Light Rain
10:00 AM 48.2 °F - 46.4 °F 93% 29.62 in - WSW 13.8 mph - N/A Rain Light Rain
10:30 AM 50.0 °F - 48.2 °F 94% 29.62 in 3.7 mi WSW 15.0 mph - N/A Rain Light Rain
11:00 AM 50.0 °F - 48.2 °F 94% 29.59 in 1.4 mi WSW 16.1 mph - N/A Rain Light Rain
11:30 AM 50.0 °F - 48.2 °F 94% 29.59 in 1.4 mi WSW 16.1 mph - N/A Rain Rain
12:00 PM 50.0 °F - 50.0 °F 100% 29.59 in - WSW 18.4 mph 32.2 mph N/A Rain Rain
12:30 PM 51.8 °F - 50.0 °F 94% 29.59 in 1.4 mi West 18.4 mph - N/A Rain Heavy Rain
1:00 PM 54 °F - 53 °F 94% 29.61 in 12 mi West 12.7 mph - -   Clear
1:00 PM 53.6 °F - 53.6 °F 100% 29.59 in 6.2 mi West 12.7 mph - N/A   Mostly Cloudy
1:30 PM 55.4 °F - 53.6 °F 94% 29.59 in 6.2 mi West 16.1 mph 28.8 mph N/A   Overcast
2:00 PM 55.4 °F - 50.0 °F 82% 29.59 in 6.2 mi WNW 13.8 mph - N/A   Mostly Cloudy
2:30 PM 55.4 °F - 50.0 °F 82% 29.59 in 6.2 mi WNW 17.3 mph - N/A   Overcast
3:00 PM 55.4 °F - 50.0 °F 82% 29.59 in 6.2 mi WNW 19.6 mph - N/A   Overcast
3:30 PM 53.6 °F - 50.0 °F 88% 29.59 in 6.2 mi West 19.6 mph - N/A Rain Light Rain
4:00 PM 53.6 °F - 48.2 °F 82% 29.59 in 6.2 mi West 20.7 mph 33.4 mph N/A   Overcast
4:30 PM 53.6 °F - 48.2 °F 82% 29.62 in 6.2 mi West 19.6 mph - N/A   Overcast
5:00 PM 53.6 °F - 48.2 °F 82% 29.62 in 6.2 mi West 18.4 mph - N/A Rain Light Rain
5:30 PM 44.6 °F 38.1 °F 42.8 °F 93% 29.65 in 3.1 mi North 13.8 mph - N/A Rain Light Rain
6:00 PM 42.8 °F 37.0 °F 41.0 °F 93% 29.68 in - NNE 10.4 mph - N/A Rain Light Rain
6:30 PM 41.0 °F 35.2 °F 39.2 °F 93% 29.68 in 4.3 mi NE 9.2 mph - N/A Rain Rain
7:00 PM 40 °F - 38 °F 91% 29.73 in 9 mi NE 8.1 mph - -   Clear
7:00 PM 39.2 °F 33.6 °F 39.2 °F 100% 29.71 in 6.2 mi NE 8.1 mph - N/A   Overcast
7:30 PM 39.2 °F 34.2 °F 37.4 °F 93% 29.74 in 6.2 mi ENE 6.9 mph - N/A   Overcast
8:00 PM 39.2 °F 33.6 °F 37.4 °F 93% 29.74 in 6.2 mi NE 8.1 mph - N/A Rain Light Rain
8:30 PM 39.2 °F 34.2 °F 37.4 °F 93% 29.77 in 6.2 mi NE 6.9 mph - N/A   Overcast
9:00 PM 39.2 °F 32.5 °F 35.6 °F 87% 29.77 in 6.2 mi NE 10.4 mph - N/A   Overcast
9:30 PM 37.4 °F 31.4 °F 33.8 °F 87% 29.80 in 6.2 mi ENE 8.1 mph - N/A Rain Light Rain
10:00 PM 37.4 °F 33.8 °F 35.6 °F 93% 29.80 in 6.2 mi NNE 4.6 mph - N/A   Unknown
10:30 PM 37.4 °F 34.9 °F 35.6 °F 93% 29.83 in 6.2 mi NNE 3.5 mph - N/A   Unknown
11:00 PM 37.4 °F 33.8 °F 35.6 °F 93% 29.83 in 6.2 mi NNE 4.6 mph - N/A   Unknown
11:30 PM 37.4 °F 32.8 °F 33.8 °F 87% 29.83 in 6.2 mi NNE 5.8 mph - N/A   Unknown